Datum;Stunde;Lohauser Deich;Wetter;Temperatur;Gefuehlte Temperatur;Regen
01.01.2016;00:00:00;1;Sonnig;4;2;0
01.01.2016;01:00:00;2;Sonnig;4;1;0
01.01.2016;02:00:00;1;Stellenweiser Regenfall;4;1;0
01.01.2016;03:00:00;1;Stellenweiser Regenfall;4;1;0
01.01.2016;04:00:00;0;Stellenweiser Regenfall;4;1;0
01.01.2016;05:00:00;3;Nieselregen;4;1;0
01.01.2016;06:00:00;0;Nieselregen;5;1;0
01.01.2016;07:00:00;1;Nieselregen;5;2;0
01.01.2016;08:00:00;2;Leichter Nebel;5;3;0
01.01.2016;09:00:00;11;Leichter Nebel;5;4;0
01.01.2016;10:00:00;15;Leichter Nebel;6;5;0
01.01.2016;11:00:00;32;Leicht bewölkt;6;5;0
01.01.2016;12:00:00;60;Leicht bewölkt;6;6;0
01.01.2016;13:00:00;52;Leicht bewölkt;6;6;0
01.01.2016;14:00:00;98;Bedeckt;6;6;0
01.01.2016;15:00:00;140;Bedeckt;6;6;0
01.01.2016;16:00:00;55;Bedeckt;6;5;0
01.01.2016;17:00:00;20;Bedeckt;5;5;0
01.01.2016;18:00:00;7;Bedeckt;5;4;0
01.01.2016;19:00:00;2;Bedeckt;5;2;0
01.01.2016;20:00:00;3;Leicht bewölkt;5;0;0
01.01.2016;21:00:00;0;Leicht bewölkt;5;-2;0
01.01.2016;22:00:00;1;Leicht bewölkt;4;-2;0
01.01.2016;23:00:00;0;Bedeckt;4;-2;0
02.01.2016;00:00:00;0;Bedeckt;4;-2;0
02.01.2016;01:00:00;0;Bedeckt;4;-2;0
02.01.2016;02:00:00;0;Leicht bewölkt;4;-1;0
02.01.2016;03:00:00;0;Leicht bewölkt;4;-1;0
02.01.2016;04:00:00;0;Leicht bewölkt;4;-1;0
02.01.2016;05:00:00;1;Leicht bewölkt;5;-1;0
02.01.2016;06:00:00;1;Leicht bewölkt;5;-1;0
02.01.2016;07:00:00;0;Leicht bewölkt;5;-1;0
02.01.2016;08:00:00;0;Leichter Regenfall;5;-1;0
02.01.2016;09:00:00;3;Leichter Regenfall;5;-1;0
02.01.2016;10:00:00;7;Leichter Regenfall;5;0;0
02.01.2016;11:00:00;2;Nieselregen;5;0;0
02.01.2016;12:00:00;8;Nieselregen;5;1;0
02.01.2016;13:00:00;8;Nieselregen;5;1;0
02.01.2016;14:00:00;7;Stellenweiser Regenfall;5;1;0
02.01.2016;15:00:00;10;Stellenweiser Regenfall;5;1;0
02.01.2016;16:00:00;13;Stellenweiser Regenfall;5;1;0
02.01.2016;17:00:00;7;Bewölkt;5;1;0
02.01.2016;18:00:00;1;Bewölkt;5;1;0
02.01.2016;19:00:00;2;Bewölkt;5;1;0
02.01.2016;20:00:00;0;Leicht bewölkt;5;1;0
02.01.2016;21:00:00;0;Leicht bewölkt;5;0;0
02.01.2016;22:00:00;0;Leicht bewölkt;5;0;0
02.01.2016;23:00:00;0;Nieselregen;5;0;0
03.01.2016;00:00:00;0;Nieselregen;6;0;0
03.01.2016;01:00:00;0;Nieselregen;6;0;0
03.01.2016;02:00:00;0;Mäßiger Regenfall;6;-1;1
03.01.2016;03:00:00;1;Mäßiger Regenfall;6;-1;1
03.01.2016;04:00:00;0;Mäßiger Regenfall;6;-1;1
03.01.2016;05:00:00;0;Mäßiger Regenfall;6;0;1
03.01.2016;06:00:00;0;Mäßiger Regenfall;7;0;1
03.01.2016;07:00:00;0;Mäßiger Regenfall;7;1;1
03.01.2016;08:00:00;0;Mäßiger Regenfall;7;1;1
03.01.2016;09:00:00;8;Mäßiger Regenfall;7;2;1
03.01.2016;10:00:00;10;Mäßiger Regenfall;7;3;1
03.01.2016;11:00:00;26;Stellenweiser Regenfall;7;3;1
03.01.2016;12:00:00;53;Stellenweiser Regenfall;7;4;0
03.01.2016;13:00:00;64;Stellenweiser Regenfall;7;4;0
03.01.2016;14:00:00;67;Bewölkt;7;5;0
03.01.2016;15:00:00;58;Bewölkt;7;5;0
03.01.2016;16:00:00;21;Bewölkt;7;4;0
03.01.2016;17:00:00;11;Bedeckt;6;4;0
03.01.2016;18:00:00;7;Bedeckt;6;3;0
03.01.2016;19:00:00;0;Bedeckt;6;2;0
03.01.2016;20:00:00;1;Nieselregen;6;1;0
03.01.2016;21:00:00;1;Nieselregen;6;0;0
03.01.2016;22:00:00;0;Nieselregen;5;0;0
03.01.2016;23:00:00;0;Mäßiger Regenfall;5;0;1
04.01.2016;00:00:00;0;Mäßiger Regenfall;5;0;1
04.01.2016;01:00:00;0;Mäßiger Regenfall;5;0;1
04.01.2016;02:00:00;0;Mäßiger Regenfall;5;0;1
04.01.2016;03:00:00;0;Mäßiger Regenfall;5;0;1
04.01.2016;04:00:00;0;Mäßiger Regenfall;6;0;1
04.01.2016;05:00:00;0;Leichter Regenfall;6;1;1
04.01.2016;06:00:00;8;Leichter Regenfall;7;1;1
04.01.2016;07:00:00;9;Leichter Regenfall;7;2;1
04.01.2016;08:00:00;6;Leichter Regenschauer;7;2;0
04.01.2016;09:00:00;6;Leichter Regenschauer;8;2;0
04.01.2016;10:00:00;5;Leichter Regenschauer;8;3;0
04.01.2016;11:00:00;7;Leichter Regenschauer;8;4;0
04.01.2016;12:00:00;4;Leichter Regenschauer;8;4;0
04.01.2016;13:00:00;4;Leichter Regenschauer;8;4;0
04.01.2016;14:00:00;8;Mäßiger bis starker Regen mit Gewitter;8;5;1
04.01.2016;15:00:00;8;Mäßiger bis starker Regen mit Gewitter;8;5;1
04.01.2016;16:00:00;10;Mäßiger bis starker Regen mit Gewitter;7;5;1
04.01.2016;17:00:00;10;Mäßiger bis starker Regen mit Gewitter;7;5;1
04.01.2016;18:00:00;8;Mäßiger bis starker Regen mit Gewitter;6;4;1
04.01.2016;19:00:00;5;Mäßiger bis starker Regen mit Gewitter;6;4;1
04.01.2016;20:00:00;1;Stellenweiser Regenfall;5;4;1
04.01.2016;21:00:00;0;Stellenweiser Regenfall;5;3;0
04.01.2016;22:00:00;0;Stellenweiser Regenfall;5;3;0
04.01.2016;23:00:00;2;Stellenweiser Regenfall;4;2;0
05.01.2016;00:00:00;0;Stellenweiser Regenfall;4;2;0
05.01.2016;01:00:00;0;Stellenweiser Regenfall;4;1;0
05.01.2016;02:00:00;0;Bewölkt;4;1;0
05.01.2016;03:00:00;0;Bewölkt;4;1;0
05.01.2016;04:00:00;0;Bewölkt;5;1;0
05.01.2016;05:00:00;3;Leicht bewölkt;5;0;0
05.01.2016;06:00:00;8;Leicht bewölkt;5;0;0
05.01.2016;07:00:00;18;Leicht bewölkt;6;1;0
05.01.2016;08:00:00;11;Leicht bewölkt;6;2;0
05.01.2016;09:00:00;15;Leicht bewölkt;6;2;0
05.01.2016;10:00:00;18;Leicht bewölkt;7;3;0
05.01.2016;11:00:00;27;Leicht bewölkt;7;4;0
05.01.2016;12:00:00;26;Leicht bewölkt;7;4;0
05.01.2016;13:00:00;31;Leicht bewölkt;7;5;0
05.01.2016;14:00:00;30;Leicht bewölkt;7;5;0
05.01.2016;15:00:00;31;Leicht bewölkt;7;5;0
05.01.2016;16:00:00;26;Leicht bewölkt;7;5;0
05.01.2016;17:00:00;18;Bedeckt;7;5;0
05.01.2016;18:00:00;11;Bedeckt;6;4;0
05.01.2016;19:00:00;6;Bedeckt;6;4;0
05.01.2016;20:00:00;9;Mäßiger bis starker Regen mit Gewitter;6;3;0
05.01.2016;21:00:00;0;Mäßiger bis starker Regen mit Gewitter;6;3;1
05.01.2016;22:00:00;1;Mäßiger bis starker Regen mit Gewitter;6;2;0
05.01.2016;23:00:00;0;Nieselregen;6;2;0
06.01.2016;00:00:00;0;Nieselregen;6;1;0
06.01.2016;01:00:00;0;Nieselregen;6;1;0
06.01.2016;02:00:00;1;Mäßiger bis starker Regen mit Gewitter;6;1;0
06.01.2016;03:00:00;0;Mäßiger bis starker Regen mit Gewitter;6;1;0
06.01.2016;04:00:00;0;Mäßiger bis starker Regen mit Gewitter;6;2;0
06.01.2016;05:00:00;2;Nieselregen;6;2;0
06.01.2016;06:00:00;11;Nieselregen;7;3;0
06.01.2016;07:00:00;21;Nieselregen;7;3;0
06.01.2016;08:00:00;11;Bedeckt;7;4;0
06.01.2016;09:00:00;9;Bedeckt;7;4;0
06.01.2016;10:00:00;20;Bedeckt;8;4;0
06.01.2016;11:00:00;25;Bewölkt;8;5;0
06.01.2016;12:00:00;33;Bewölkt;8;5;0
06.01.2016;13:00:00;19;Bewölkt;8;6;0
06.01.2016;14:00:00;14;Leicht bewölkt;8;6;0
06.01.2016;15:00:00;11;Leicht bewölkt;7;7;0
06.01.2016;16:00:00;25;Leicht bewölkt;7;6;0
06.01.2016;17:00:00;21;Bewölkt;7;6;0
06.01.2016;18:00:00;13;Bewölkt;6;5;0
06.01.2016;19:00:00;4;Bewölkt;6;4;0
06.01.2016;20:00:00;2;Bewölkt;6;3;0
06.01.2016;21:00:00;2;Bewölkt;5;2;0
06.01.2016;22:00:00;1;Bewölkt;5;1;0
06.01.2016;23:00:00;0;Leicht bewölkt;5;1;0
07.01.2016;00:00:00;0;Leicht bewölkt;5;1;0
07.01.2016;01:00:00;0;Leicht bewölkt;5;1;0
07.01.2016;02:00:00;0;Bewölkt;5;0;0
07.01.2016;03:00:00;0;Bewölkt;5;0;0
07.01.2016;04:00:00;0;Bewölkt;5;0;0
07.01.2016;05:00:00;2;Bedeckt;5;-1;0
07.01.2016;06:00:00;4;Bedeckt;5;-1;0
07.01.2016;07:00:00;17;Bedeckt;5;0;0
07.01.2016;08:00:00;14;Bedeckt;5;0;0
07.01.2016;09:00:00;12;Bedeckt;5;1;0
07.01.2016;10:00:00;15;Bedeckt;5;1;0
07.01.2016;11:00:00;20;Nieselregen;6;2;0
07.01.2016;12:00:00;9;Nieselregen;6;3;0
07.01.2016;13:00:00;11;Nieselregen;5;3;0
07.01.2016;14:00:00;6;Mäßiger Regenfall;5;3;1
07.01.2016;15:00:00;3;Mäßiger Regenfall;5;4;1
07.01.2016;16:00:00;3;Mäßiger Regenfall;5;3;1
07.01.2016;17:00:00;11;Leichter Regenschauer;5;3;1
07.01.2016;18:00:00;8;Leichter Regenschauer;4;3;1
07.01.2016;19:00:00;4;Leichter Regenschauer;4;2;1
07.01.2016;20:00:00;2;Sonnig;4;0;0
07.01.2016;21:00:00;0;Sonnig;4;-1;0
07.01.2016;22:00:00;0;Sonnig;3;-2;0
07.01.2016;23:00:00;0;Sonnig;3;-2;0
08.01.2016;00:00:00;0;Sonnig;3;-3;0
08.01.2016;01:00:00;2;Sonnig;3;-3;0
08.01.2016;02:00:00;0;Sonnig;3;-3;0
08.01.2016;03:00:00;0;Sonnig;4;-3;0
08.01.2016;04:00:00;0;Sonnig;4;-3;0
08.01.2016;05:00:00;3;Sonnig;4;-3;0
08.01.2016;06:00:00;5;Sonnig;5;-3;0
08.01.2016;07:00:00;17;Sonnig;5;-2;0
08.01.2016;08:00:00;14;Sonnig;5;-1;0
08.01.2016;09:00:00;22;Sonnig;6;0;0
08.01.2016;10:00:00;19;Sonnig;6;1;0
08.01.2016;11:00:00;33;Sonnig;6;2;0
08.01.2016;12:00:00;42;Sonnig;7;3;0
08.01.2016;13:00:00;57;Sonnig;7;4;0
08.01.2016;14:00:00;57;Sonnig;6;4;0
08.01.2016;15:00:00;69;Sonnig;6;5;0
08.01.2016;16:00:00;63;Sonnig;6;5;0
08.01.2016;17:00:00;40;Sonnig;5;4;0
08.01.2016;18:00:00;12;Sonnig;5;4;0
08.01.2016;19:00:00;9;Sonnig;4;3;0
08.01.2016;20:00:00;1;Sonnig;4;2;0
08.01.2016;21:00:00;1;Sonnig;3;1;0
08.01.2016;22:00:00;0;Sonnig;3;1;0
08.01.2016;23:00:00;1;Leicht bewölkt;3;0;0
09.01.2016;00:00:00;0;Leicht bewölkt;2;-1;0
09.01.2016;01:00:00;0;Leicht bewölkt;3;-1;0
09.01.2016;02:00:00;0;Leicht bewölkt;3;-2;0
09.01.2016;03:00:00;0;Leicht bewölkt;3;-2;0
09.01.2016;04:00:00;0;Leicht bewölkt;3;-2;0
09.01.2016;05:00:00;1;Sonnig;4;-2;0
09.01.2016;06:00:00;6;Sonnig;4;-2;0
09.01.2016;07:00:00;9;Sonnig;5;-2;0
09.01.2016;08:00:00;3;Leicht bewölkt;5;-1;0
09.01.2016;09:00:00;36;Leicht bewölkt;6;-1;0
09.01.2016;10:00:00;36;Leicht bewölkt;6;0;0
09.01.2016;11:00:00;59;Sonnig;6;1;0
09.01.2016;12:00:00;69;Sonnig;7;2;0
09.01.2016;13:00:00;123;Sonnig;7;3;0
09.01.2016;14:00:00;99;Sonnig;7;3;0
09.01.2016;15:00:00;97;Sonnig;7;3;0
09.01.2016;16:00:00;63;Sonnig;6;3;0
09.01.2016;17:00:00;17;Leicht bewölkt;6;2;0
09.01.2016;18:00:00;3;Leicht bewölkt;6;1;0
09.01.2016;19:00:00;0;Leicht bewölkt;6;1;0
09.01.2016;20:00:00;6;Bedeckt;6;0;0
09.01.2016;21:00:00;1;Bedeckt;6;0;0
09.01.2016;22:00:00;0;Bedeckt;5;1;0
09.01.2016;23:00:00;0;Leicht bewölkt;5;1;0
10.01.2016;00:00:00;0;Leicht bewölkt;5;2;0
10.01.2016;01:00:00;2;Leicht bewölkt;5;3;0
10.01.2016;02:00:00;0;Stellenweiser leichter Regenfall;5;3;0
10.01.2016;03:00:00;0;Stellenweiser leichter Regenfall;6;4;0
10.01.2016;04:00:00;0;Stellenweiser leichter Regenfall;6;3;0
10.01.2016;05:00:00;0;Stellenweiser leichter Regenfall;6;3;0
10.01.2016;06:00:00;0;Stellenweiser leichter Regenfall;7;2;0
10.01.2016;07:00:00;2;Stellenweiser leichter Regenfall;7;2;0
10.01.2016;08:00:00;5;Sonnig;7;2;0
10.01.2016;09:00:00;12;Sonnig;8;3;0
10.01.2016;10:00:00;38;Sonnig;8;3;0
10.01.2016;11:00:00;82;Sonnig;8;4;0
10.01.2016;12:00:00;114;Sonnig;8;4;0
10.01.2016;13:00:00;179;Sonnig;8;5;0
10.01.2016;14:00:00;159;Sonnig;8;5;0
10.01.2016;15:00:00;165;Sonnig;8;6;0
10.01.2016;16:00:00;88;Sonnig;7;6;0
10.01.2016;17:00:00;14;Bewölkt;6;5;0
10.01.2016;18:00:00;3;Bewölkt;6;5;0
10.01.2016;19:00:00;3;Bewölkt;5;4;0
10.01.2016;20:00:00;2;Stellenweiser Regenfall;5;4;0
10.01.2016;21:00:00;1;Stellenweiser Regenfall;4;3;0
10.01.2016;22:00:00;1;Stellenweiser Regenfall;4;3;0
10.01.2016;23:00:00;0;Stellenweiser Regenfall;4;3;0
11.01.2016;00:00:00;0;Stellenweiser Regenfall;3;3;0
11.01.2016;01:00:00;0;Stellenweiser Regenfall;3;3;0
11.01.2016;02:00:00;0;Sonnig;3;3;0
11.01.2016;03:00:00;0;Sonnig;3;2;0
11.01.2016;04:00:00;0;Sonnig;4;2;0
11.01.2016;05:00:00;2;Sonnig;4;1;0
11.01.2016;06:00:00;6;Sonnig;4;1;0
11.01.2016;07:00:00;17;Sonnig;5;1;0
11.01.2016;08:00:00;13;Leicht bewölkt;5;1;0
11.01.2016;09:00:00;14;Leicht bewölkt;5;1;0
11.01.2016;10:00:00;9;Leicht bewölkt;5;1;0
11.01.2016;11:00:00;8;Nieselregen;5;2;0
11.01.2016;12:00:00;3;Nieselregen;6;2;0
11.01.2016;13:00:00;0;Nieselregen;6;2;0
11.01.2016;14:00:00;5;Teilweise mäßiger Regenfall;5;3;1
11.01.2016;15:00:00;13;Teilweise mäßiger Regenfall;5;3;1
11.01.2016;16:00:00;5;Teilweise mäßiger Regenfall;5;3;1
11.01.2016;17:00:00;11;Leichter Regenschauer;5;3;1
11.01.2016;18:00:00;13;Leichter Regenschauer;5;3;1
11.01.2016;19:00:00;5;Leichter Regenschauer;5;2;0
11.01.2016;20:00:00;1;Bedeckt;5;0;0
11.01.2016;21:00:00;0;Bedeckt;4;-1;0
11.01.2016;22:00:00;3;Bedeckt;4;-1;0
11.01.2016;23:00:00;0;Nieselregen;4;-1;0
12.01.2016;00:00:00;1;Nieselregen;4;-1;0
12.01.2016;01:00:00;0;Nieselregen;4;-1;0
12.01.2016;02:00:00;0;Nieselregen;4;-1;0
12.01.2016;03:00:00;0;Nieselregen;4;0;0
12.01.2016;04:00:00;0;Nieselregen;5;0;0
12.01.2016;05:00:00;2;Bedeckt;5;0;0
12.01.2016;06:00:00;6;Bedeckt;5;0;0
12.01.2016;07:00:00;21;Bedeckt;6;0;0
12.01.2016;08:00:00;7;Leichter Regenschauer;6;1;0
12.01.2016;09:00:00;10;Leichter Regenschauer;6;1;0
12.01.2016;10:00:00;27;Leichter Regenschauer;6;1;0
12.01.2016;11:00:00;12;Nieselregen;7;1;0
12.01.2016;12:00:00;11;Nieselregen;7;2;0
12.01.2016;13:00:00;10;Nieselregen;7;2;0
12.01.2016;14:00:00;19;Leichter Regenschauer;7;2;0
12.01.2016;15:00:00;18;Leichter Regenschauer;7;3;0
12.01.2016;16:00:00;22;Leichter Regenschauer;6;2;0
12.01.2016;17:00:00;21;Leichter Regenschauer;6;2;0
12.01.2016;18:00:00;17;Leichter Regenschauer;6;2;0
12.01.2016;19:00:00;9;Leichter Regenschauer;5;1;0
12.01.2016;20:00:00;5;Nieselregen;5;1;0
12.01.2016;21:00:00;2;Nieselregen;5;1;0
12.01.2016;22:00:00;0;Nieselregen;5;0;0
12.01.2016;23:00:00;0;Leichter Regenschauer;5;0;0
13.01.2016;00:00:00;1;Leichter Regenschauer;5;-1;0
13.01.2016;01:00:00;0;Leichter Regenschauer;5;-1;0
13.01.2016;02:00:00;0;Mäßiger bis starker Regen mit Gewitter;5;-2;1
13.01.2016;03:00:00;0;Mäßiger bis starker Regen mit Gewitter;5;-2;1
13.01.2016;04:00:00;0;Mäßiger bis starker Regen mit Gewitter;5;-2;1
13.01.2016;05:00:00;0;Leichter Regenschauer;5;-2;0
13.01.2016;06:00:00;7;Leichter Regenschauer;5;-2;0
13.01.2016;07:00:00;24;Leichter Regenschauer;5;-1;0
13.01.2016;08:00:00;6;Leicht bewölkt;6;-1;0
13.01.2016;09:00:00;1;Leicht bewölkt;6;0;0
13.01.2016;10:00:00;9;Leicht bewölkt;6;1;0
13.01.2016;11:00:00;3;Leichter Regenschauer;6;1;0
13.01.2016;12:00:00;9;Leichter Regenschauer;6;2;0
13.01.2016;13:00:00;8;Leichter Regenschauer;6;3;0
13.01.2016;14:00:00;2;Stellenweiser leichter Regenfall;6;3;0
13.01.2016;15:00:00;7;Stellenweiser leichter Regenfall;5;3;0
13.01.2016;16:00:00;8;Stellenweiser leichter Regenfall;5;3;0
13.01.2016;17:00:00;12;Bedeckt;4;3;0
13.01.2016;18:00:00;10;Bedeckt;3;2;0
13.01.2016;19:00:00;6;Bedeckt;3;2;0
13.01.2016;20:00:00;4;Leicht bewölkt;2;1;0
13.01.2016;21:00:00;4;Leicht bewölkt;2;1;0
13.01.2016;22:00:00;0;Leicht bewölkt;1;0;0
13.01.2016;23:00:00;1;Leicht bewölkt;1;0;0
14.01.2016;00:00:00;0;Leicht bewölkt;1;-1;0
14.01.2016;01:00:00;0;Leicht bewölkt;1;-1;0
14.01.2016;02:00:00;0;Leicht bewölkt;1;-2;0
14.01.2016;03:00:00;0;Leicht bewölkt;1;-2;0
14.01.2016;04:00:00;0;Leicht bewölkt;2;-2;0
14.01.2016;05:00:00;0;Bewölkt;2;-3;0
14.01.2016;06:00:00;5;Bewölkt;3;-3;0
14.01.2016;07:00:00;13;Bewölkt;3;-3;0
14.01.2016;08:00:00;8;Stellenweiser Regenfall;3;-2;0
14.01.2016;09:00:00;8;Stellenweiser Regenfall;4;-2;0
14.01.2016;10:00:00;9;Stellenweiser Regenfall;4;-2;0
14.01.2016;11:00:00;4;Mäßiger bis starker Eisregen;4;-1;1
14.01.2016;12:00:00;0;Mäßiger bis starker Eisregen;5;-1;1
14.01.2016;13:00:00;3;Mäßiger bis starker Eisregen;4;0;1
14.01.2016;14:00:00;6;Leichter Regenfall;4;0;1
14.01.2016;15:00:00;17;Leichter Regenfall;4;1;1
14.01.2016;16:00:00;18;Leichter Regenfall;4;0;1
14.01.2016;17:00:00;10;Bedeckt;4;0;0
14.01.2016;18:00:00;9;Bedeckt;3;0;0
14.01.2016;19:00:00;1;Bedeckt;3;-1;0
14.01.2016;20:00:00;6;Leichter Eisregen;3;-2;0
14.01.2016;21:00:00;0;Leichter Eisregen;2;-3;0
14.01.2016;22:00:00;0;Leichter Eisregen;2;-3;0
14.01.2016;23:00:00;1;Schneeverwehungen;2;-4;0
15.01.2016;00:00:00;0;Schneeverwehungen;2;-5;0
15.01.2016;01:00:00;0;Schneeverwehungen;2;-5;0
15.01.2016;02:00:00;0;Leichter Eisregen;2;-5;0
15.01.2016;03:00:00;0;Leichter Eisregen;2;-6;0
15.01.2016;04:00:00;0;Leichter Eisregen;2;-5;0
15.01.2016;05:00:00;1;Mäßiger Schneefall;2;-5;1
15.01.2016;06:00:00;9;Mäßiger Schneefall;3;-4;1
15.01.2016;07:00:00;10;Mäßiger Schneefall;3;-4;0
15.01.2016;08:00:00;4;Mäßiger Schneefall;3;-3;0
15.01.2016;09:00:00;8;Mäßiger Schneefall;3;-2;0
15.01.2016;10:00:00;4;Mäßiger Schneefall;3;-2;0
15.01.2016;11:00:00;4;Leichter Schneefall;3;-1;0
15.01.2016;12:00:00;0;Leichter Schneefall;4;0;0
15.01.2016;13:00:00;7;Leichter Schneefall;3;0;0
15.01.2016;14:00:00;9;Bedeckt;3;0;0
15.01.2016;15:00:00;13;Bedeckt;3;0;0
15.01.2016;16:00:00;21;Bedeckt;3;0;0
15.01.2016;17:00:00;9;Stellenweiser Regenfall;2;0;0
15.01.2016;18:00:00;3;Stellenweiser Regenfall;2;-1;0
15.01.2016;19:00:00;3;Stellenweiser Regenfall;1;-1;0
15.01.2016;20:00:00;1;Leicht bewölkt;1;-1;0
15.01.2016;21:00:00;1;Leicht bewölkt;1;-1;0
15.01.2016;22:00:00;0;Leicht bewölkt;0;-1;0
15.01.2016;23:00:00;0;Leichter Nebel;0;-1;0
16.01.2016;00:00:00;3;Leichter Nebel;0;-1;0
16.01.2016;01:00:00;0;Leichter Nebel;0;0;0
16.01.2016;02:00:00;0;Eisnebel;0;0;0
16.01.2016;03:00:00;0;Eisnebel;0;0;0
16.01.2016;04:00:00;0;Eisnebel;1;0;0
16.01.2016;05:00:00;0;Leicht bewölkt;1;-1;0
16.01.2016;06:00:00;1;Leicht bewölkt;2;-1;0
16.01.2016;07:00:00;0;Leicht bewölkt;2;-2;0
16.01.2016;08:00:00;3;Leichte Eisregen;2;-2;0
16.01.2016;09:00:00;4;Leichte Eisregen;3;-3;0
16.01.2016;10:00:00;2;Leichte Eisregen;3;-2;0
16.01.2016;11:00:00;13;Leichte Eisregen;3;-1;0
16.01.2016;12:00:00;5;Leichte Eisregen;4;-1;0
16.01.2016;13:00:00;3;Leichte Eisregen;3;-1;0
16.01.2016;14:00:00;8;Sonnig;3;-1;0
16.01.2016;15:00:00;10;Sonnig;3;-1;0
16.01.2016;16:00:00;10;Sonnig;2;-2;0
16.01.2016;17:00:00;4;Sonnig;1;-3;0
16.01.2016;18:00:00;3;Sonnig;1;-4;0
16.01.2016;19:00:00;0;Sonnig;0;-4;0
16.01.2016;20:00:00;0;Leicht bewölkt;0;-5;0
16.01.2016;21:00:00;0;Leicht bewölkt;-1;-5;0
16.01.2016;22:00:00;0;Leicht bewölkt;-2;-6;0
16.01.2016;23:00:00;1;Leichte Schneeschauer;-2;-6;0
17.01.2016;00:00:00;0;Leichte Schneeschauer;-2;-6;0
17.01.2016;01:00:00;0;Leichte Schneeschauer;-2;-6;0
17.01.2016;02:00:00;0;Leicht bewölkt;-2;-6;0
17.01.2016;03:00:00;0;Leicht bewölkt;-2;-7;0
17.01.2016;04:00:00;0;Leicht bewölkt;-2;-7;0
17.01.2016;05:00:00;0;Sonnig;-1;-7;0
17.01.2016;06:00:00;0;Sonnig;-1;-7;0
17.01.2016;07:00:00;0;Sonnig;-1;-6;0
17.01.2016;08:00:00;1;Leicht bewölkt;0;-5;0
17.01.2016;09:00:00;6;Leicht bewölkt;0;-5;0
17.01.2016;10:00:00;14;Leicht bewölkt;0;-4;0
17.01.2016;11:00:00;27;Bewölkt;1;-4;0
17.01.2016;12:00:00;36;Bewölkt;1;-4;0
17.01.2016;13:00:00;45;Bewölkt;1;-3;0
17.01.2016;14:00:00;25;Bedeckt;0;-3;0
17.01.2016;15:00:00;20;Bedeckt;0;-2;0
17.01.2016;16:00:00;28;Bedeckt;0;-2;0
17.01.2016;17:00:00;6;Bedeckt;-1;-2;0
17.01.2016;18:00:00;1;Bedeckt;-2;-1;0
17.01.2016;19:00:00;0;Bedeckt;-2;-2;0
17.01.2016;20:00:00;0;Bewölkt;-2;-2;0
17.01.2016;21:00:00;1;Bewölkt;-3;-3;0
17.01.2016;22:00:00;0;Bewölkt;-3;-4;0
17.01.2016;23:00:00;1;Sonnig;-4;-4;0
18.01.2016;00:00:00;0;Sonnig;-4;-5;0
18.01.2016;01:00:00;0;Sonnig;-4;-5;0
18.01.2016;02:00:00;0;Sonnig;-4;-6;0
18.01.2016;03:00:00;0;Sonnig;-4;-6;0
18.01.2016;04:00:00;0;Sonnig;-3;-7;0
18.01.2016;05:00:00;1;Sonnig;-3;-7;0
18.01.2016;06:00:00;4;Sonnig;-3;-8;0
18.01.2016;07:00:00;13;Sonnig;-2;-8;0
18.01.2016;08:00:00;12;Bewölkt;-2;-7;0
18.01.2016;09:00:00;8;Bewölkt;-2;-7;0
18.01.2016;10:00:00;9;Bewölkt;-2;-7;0
18.01.2016;11:00:00;16;Bewölkt;-2;-7;0
18.01.2016;12:00:00;17;Bewölkt;-1;-7;0
18.01.2016;13:00:00;11;Bewölkt;-2;-6;0
18.01.2016;14:00:00;18;Sonnig;-2;-6;0
18.01.2016;15:00:00;25;Sonnig;-2;-6;0
18.01.2016;16:00:00;24;Sonnig;-3;-6;0
18.01.2016;17:00:00;12;Leicht bewölkt;-3;-6;0
18.01.2016;18:00:00;11;Leicht bewölkt;-4;-6;0
18.01.2016;19:00:00;7;Leicht bewölkt;-4;-6;0
18.01.2016;20:00:00;2;Leicht bewölkt;-5;-6;0
18.01.2016;21:00:00;2;Leicht bewölkt;-5;-7;0
18.01.2016;22:00:00;0;Leicht bewölkt;-5;-8;0
18.01.2016;23:00:00;1;Leicht bewölkt;-6;-8;0
19.01.2016;00:00:00;0;Leicht bewölkt;-6;-9;0
19.01.2016;01:00:00;0;Leicht bewölkt;-6;-10;0
19.01.2016;02:00:00;0;Sonnig;-6;-10;0
19.01.2016;03:00:00;0;Sonnig;-6;-11;0
19.01.2016;04:00:00;0;Sonnig;-5;-11;0
19.01.2016;05:00:00;1;Sonnig;-5;-10;0
19.01.2016;06:00:00;7;Sonnig;-4;-10;0
19.01.2016;07:00:00;21;Sonnig;-4;-9;0
19.01.2016;08:00:00;16;Sonnig;-3;-9;0
19.01.2016;09:00:00;17;Sonnig;-3;-8;0
19.01.2016;10:00:00;12;Sonnig;-3;-7;0
19.01.2016;11:00:00;4;Sonnig;-2;-7;0
19.01.2016;12:00:00;22;Sonnig;-2;-6;0
19.01.2016;13:00:00;16;Sonnig;-2;-6;0
19.01.2016;14:00:00;24;Leicht bewölkt;-2;-5;0
19.01.2016;15:00:00;20;Leicht bewölkt;-2;-5;0
19.01.2016;16:00:00;29;Leicht bewölkt;-3;-5;0
19.01.2016;17:00:00;12;Leicht bewölkt;-3;-6;0
19.01.2016;18:00:00;15;Leicht bewölkt;-3;-6;0
19.01.2016;19:00:00;5;Leicht bewölkt;-3;-7;0
19.01.2016;20:00:00;4;Bedeckt;-3;-7;0
19.01.2016;21:00:00;0;Bedeckt;-4;-8;0
19.01.2016;22:00:00;0;Bedeckt;-4;-8;0
19.01.2016;23:00:00;0;Bedeckt;-4;-7;0
20.01.2016;00:00:00;0;Bedeckt;-4;-6;0
20.01.2016;01:00:00;0;Bedeckt;-4;-6;0
20.01.2016;02:00:00;0;Bedeckt;-3;-6;0
20.01.2016;03:00:00;0;Bedeckt;-3;-6;0
20.01.2016;04:00:00;0;Bedeckt;-2;-6;0
20.01.2016;05:00:00;0;Leicht bewölkt;-2;-6;0
20.01.2016;06:00:00;1;Leicht bewölkt;-1;-6;0
20.01.2016;07:00:00;13;Leicht bewölkt;0;-6;0
20.01.2016;08:00:00;13;Bewölkt;1;-5;0
20.01.2016;09:00:00;6;Bewölkt;1;-5;0
20.01.2016;10:00:00;10;Bewölkt;2;-4;0
20.01.2016;11:00:00;7;Leicht bewölkt;3;-4;0
20.01.2016;12:00:00;6;Leicht bewölkt;3;-3;0
20.01.2016;13:00:00;8;Leicht bewölkt;3;-3;0
20.01.2016;14:00:00;8;Bedeckt;3;-3;0
20.01.2016;15:00:00;19;Bedeckt;3;-2;0
20.01.2016;16:00:00;12;Bedeckt;2;-3;0
20.01.2016;17:00:00;12;Leichter Schneefall;2;-3;0
20.01.2016;18:00:00;10;Leichter Schneefall;1;-3;0
20.01.2016;19:00:00;3;Leichter Schneefall;1;-3;0
20.01.2016;20:00:00;5;Leichter Nebel;0;-3;0
20.01.2016;21:00:00;1;Leichter Nebel;0;-3;0
20.01.2016;22:00:00;0;Leichter Nebel;0;-3;0
20.01.2016;23:00:00;1;Leichter Nebel;-1;-4;0
21.01.2016;00:00:00;0;Leichter Nebel;-1;-4;0
21.01.2016;01:00:00;0;Leichter Nebel;-1;-4;0
21.01.2016;02:00:00;0;Leichter Nebel;-1;-3;0
21.01.2016;03:00:00;0;Leichter Nebel;-1;-3;0
21.01.2016;04:00:00;0;Leichter Nebel;0;-3;0
21.01.2016;05:00:00;0;Leicht bewölkt;0;-3;0
21.01.2016;06:00:00;1;Leicht bewölkt;1;-2;0
21.01.2016;07:00:00;17;Leicht bewölkt;1;-2;0
21.01.2016;08:00:00;13;Sonnig;1;-2;0
21.01.2016;09:00:00;13;Sonnig;2;-2;0
21.01.2016;10:00:00;11;Sonnig;2;-1;0
21.01.2016;11:00:00;15;Sonnig;2;-1;0
21.01.2016;12:00:00;24;Sonnig;3;0;0
21.01.2016;13:00:00;20;Sonnig;2;0;0
21.01.2016;14:00:00;29;Bewölkt;2;0;0
21.01.2016;15:00:00;20;Bewölkt;2;1;0
21.01.2016;16:00:00;14;Bewölkt;2;0;0
21.01.2016;17:00:00;14;Bewölkt;1;-1;0
21.01.2016;18:00:00;13;Bewölkt;1;-1;0
21.01.2016;19:00:00;7;Bewölkt;0;-2;0
21.01.2016;20:00:00;3;Leicht bewölkt;0;-2;0
21.01.2016;21:00:00;1;Leicht bewölkt;-1;-3;0
21.01.2016;22:00:00;2;Leicht bewölkt;-1;-3;0
21.01.2016;23:00:00;0;Sonnig;-2;-4;0
22.01.2016;00:00:00;0;Sonnig;-2;-4;0
22.01.2016;01:00:00;1;Sonnig;-2;-5;0
22.01.2016;02:00:00;0;Sonnig;-1;-5;0
22.01.2016;03:00:00;0;Sonnig;-1;-6;0
22.01.2016;04:00:00;0;Sonnig;-1;-6;0
22.01.2016;05:00:00;1;Sonnig;0;-7;0
22.01.2016;06:00:00;5;Sonnig;0;-7;0
22.01.2016;07:00:00;24;Sonnig;1;-7;0
22.01.2016;08:00:00;7;Sonnig;1;-6;0
22.01.2016;09:00:00;9;Sonnig;2;-6;0
22.01.2016;10:00:00;9;Sonnig;2;-6;0
22.01.2016;11:00:00;9;Leicht bewölkt;2;-5;0
22.01.2016;12:00:00;12;Leicht bewölkt;3;-4;0
22.01.2016;13:00:00;17;Leicht bewölkt;3;-4;0
22.01.2016;14:00:00;26;Leicht bewölkt;3;-3;0
22.01.2016;15:00:00;27;Leicht bewölkt;2;-3;0
22.01.2016;16:00:00;20;Leicht bewölkt;2;-3;0
22.01.2016;17:00:00;13;Leichter Regenfall;2;-4;0
22.01.2016;18:00:00;8;Leichter Regenfall;2;-4;0
22.01.2016;19:00:00;3;Leichter Regenfall;1;-4;0
22.01.2016;20:00:00;2;Mäßiger Regenfall;1;-5;1
22.01.2016;21:00:00;0;Mäßiger Regenfall;1;-5;1
22.01.2016;22:00:00;0;Mäßiger Regenfall;2;-4;1
22.01.2016;23:00:00;1;Leichter Regenfall;4;-3;1
23.01.2016;00:00:00;0;Leichter Regenfall;5;-2;1
23.01.2016;01:00:00;0;Leichter Regenfall;5;-2;1
23.01.2016;02:00:00;0;Stellenweiser Regenfall;5;-2;0
23.01.2016;03:00:00;0;Stellenweiser Regenfall;5;-2;0
23.01.2016;04:00:00;0;Stellenweiser Regenfall;5;-2;0
23.01.2016;05:00:00;0;Bedeckt;6;-2;0
23.01.2016;06:00:00;0;Bedeckt;6;-2;0
23.01.2016;07:00:00;0;Bedeckt;6;-1;0
23.01.2016;08:00:00;4;Bewölkt;6;-1;0
23.01.2016;09:00:00;11;Bewölkt;6;0;0
23.01.2016;10:00:00;18;Bewölkt;6;0;0
23.01.2016;11:00:00;36;Bewölkt;6;1;0
23.01.2016;12:00:00;23;Bewölkt;6;1;0
23.01.2016;13:00:00;43;Bewölkt;6;2;0